{"data":{"norad_id":57197,"intl_designator":"2023-091AH","name":"A-SEANSAT-PG1","alt_names":[],"object_type":"PAYLOAD","status":"ACTIVE","operator":null,"country":"MALA","launch_date":"2023-06-27","launch_site_code":"VOSTO","launch_vehicle":null,"mission":null,"orbit_class":"UNKNOWN","rcs_meters":null,"size_class":null,"mass_kg":null,"dimensions":null,"purposes":[],"wikipedia_slug":null,"has_3d_model":false,"image_url":null,"decayed_at":null,"tle_current":{"epoch":"2026-05-25T03:39:47.537856Z","epoch_age_seconds":52004,"freshness":"FRESH","line1":"1 57197U 23091AH  26145.15263354  .00017176  00000+0  49081-3 0  9997","line2":"2 57197  97.5091 214.2570 0008425 152.9773 207.1911 15.36032695161173","mean_motion":15.36032695,"eccentricity":0.0008425,"inclination_deg":97.5091,"raan_deg":214.257,"arg_perigee_deg":152.9773,"mean_anomaly_deg":207.1911,"bstar":0.00049081,"rev_number":16117,"period_min":93.748004498042,"perigee_km":452.09550239887,"apogee_km":463.61414862486,"semimajor_km":6835.9918255119,"source":"CELESTRAK","updated_at":"2026-05-25T13:37:59.915726Z"}}}